Hourly Data Report for May 30, 2012

All times are specified in Local Standard Time (LST). Add 1 hour to adjust for Daylight Saving Time where and when it is observed.

DEER LAKE A
NEWFOUNDLAND

49°12'33.000" N
57°23'40.000" W
21.90 m
8401502
71809
YDF

Download Data

Hourly Data (May 2012)
Hourly Data Report for May 30, 2012
Temp Definition
°C
Dew Point Temp Definition
°C
Rel Hum Definition
%
Wind Dir Definition
10's deg

Wind Spd Definition
km/h
Visibility Definition
km
Stn Press Definition
kPa
Hmdx Definition


Wind Chill Definition


Weather Definition


TIME
00:30 Legend Double Dagger 1.1 -2.0 80 23 5 10.0 101.45     LegendNANA
01:30 Legend Double Dagger 0.7 -2.0 82 24 5 10.0 101.48     LegendNANA
02:30 Legend Double Dagger 0.7 -2.0 82 24 8 10.0 101.49     Mainly Clear
03:30 Legend Double Dagger 0.7 -2.2 81 23 9 10.0 101.44     LegendNANA
04:30 Legend Double Dagger -1.1 -2.8 88   0 10.0 101.37     LegendNANA
05:30 Legend Double Dagger 1.5 -0.6 86 21 6 10.0 101.32     Mainly Clear
06:30 Legend Double Dagger 4.6 0.2 73 23 11 10.0 101.28     LegendNANA
07:30 Legend Double Dagger 6.1 -0.9 61 21 7 10.0 101.23     LegendNANA
08:30 Legend Double Dagger 8.1 -0.6 54 21 8 10.0 101.21     Mostly Cloudy
09:30 Legend Double Dagger 10.9 1.2 51 1 13 10.0 101.16     LegendNANA
10:30 Legend Double Dagger 12.2 3.2 54 4 13 10.0 101.11     LegendNANA
11:30 Legend Double Dagger 13.0 4.0 54 8 5 10.0 101.06     Mostly Cloudy
12:30 Legend Double Dagger 13.4 4.1 53 35 4 10.0 101.00     LegendNANA
13:30 Legend Double Dagger 14.8 5.1 52 18 9 10.0 100.92     LegendNANA
14:30 Legend Double Dagger 15.8 5.5 50 7 19 10.0 100.86     Mostly Cloudy
15:30 Legend Double Dagger 16.1 5.8 50 7 19 10.0 100.79     LegendNANA
16:30 Legend Double Dagger 14.9 5.8 54 8 22 10.0 100.74     LegendNANA
17:30 Legend Double Dagger 13.7 5.4 57 6 26 10.0 100.75     Cloudy
18:30 Legend Double Dagger 12.6 5.8 63 6 19 10.0 100.78     LegendNANA
19:30 Legend Double Dagger 11.2 5.8 69 5 16 10.0 100.79     LegendNANA
20:30 Legend Double Dagger 9.8 5.6 75 5 17 10.0 100.84     Cloudy
21:30 Legend Double Dagger 8.9 5.3 78 4 15 10.0 100.90     LegendNANA
22:30 Legend Double Dagger 7.2 4.2 81 2 15 10.0 100.93     LegendNANA
23:30 Legend Double Dagger 6.1 3.6 84 2 13 10.0 100.91     Cloudy

Notes on Data Quality.

Legend

  • E = Estimated
  • M = Missing
  • NA = Not Available
  • ‡ = Partner data that is not subject to review by the National Climate Archives
Date modified: